RH
9 9 9 8 8 8 8 8 9 11 13 15 16 18 19 19 18 18 18 18 18 17 16 15 14 14 15 14 15 14 14 13 12 13 15 13 13 13 10 10 10 9 9 9 12 14 14 14 13 12 11 10 10 11 12 14 13 13 13 12 13 11 11 14 15 13 11 15 13 14 12 9 17 22 28 30 29 39 43 46 44 43 48 48 52 55 54 54
9 8 8 8 8 7 7 7 7 9 11 14 14 16 18 19 18 18 19 19 19 20 20 20 19 17 16 16 16 16 15 14 13 13 14 13 13 13 11 11 10 9 9 10 13 13 13 13 12 11 10 11 11 11 13 14 13 13 12 11 11 11 14 15 14 14 12 14 14 13 13 10 13 20 30 36 37 43 47 49 42 38 44 47 53 52 48 47
9 8 8 7 7 7 7 7 7 7 9 11 13 14 16 17 18 18 19 20 20 21 22 23 23 22 19 18 17 17 15 15 17 18 16 15 14 13 12 11 10 10 9 11 13 12 12 12 11 11 10 11 12 11 13 14 13 12 12 11 11 11 15 16 12 13 12 13 15 14 12 11 13 16 26 39 46 50 53 56 54 47 43 46 47 45 42 42
9 8 8 7 7 6 7 7 7 7 7 8 10 12 14 15 17 18 18 20 21 22 23 24 25 25 23 20 18 17 17 19 23 22 18 17 15 14 12 11 11 10 11 13 13 11 12 13 13 12 12 12 12 12 13 13 13 12 11 11 11 12 14 14 12 13 12 12 14 13 11 11 13 14 20 33 41 51 57 58 60 53 47 48 44 42 44 41
9 9 9 8 7 7 7 7 7 7 7 7 8 9 11 14 15 17 18 19 21 23 24 25 25 25 24 23 21 19 20 25 29 25 20 19 17 15 13 12 12 11 13 15 12 11 11 13 15 13 12 12 11 12 13 13 14 13 11 10 12 14 14 13 13 13 11 11 11 10 11 12 13 14 19 26 32 43 51 52 58 56 50 50 44 42 45 41
9 9 8 9 8 8 7 6 7 7 8 8 8 7 9 12 13 15 17 19 20 22 24 24 25 26 25 25 22 22 25 27 30 29 23 21 20 16 14 13 13 13 15 15 12 12 11 13 15 14 12 12 11 12 12 13 14 13 11 11 12 13 14 14 14 12 11 10 10 11 12 12 12 15 17 21 28 39 47 50 55 57 52 49 45 41 40 38
8 9 9 9 9 9 8 7 7 7 8 8 8 8 8 10 11 14 16 18 19 20 22 23 24 25 26 26 25 28 31 27 26 27 23 22 21 19 17 16 15 16 18 16 12 12 11 12 15 14 13 12 12 12 13 13 13 14 12 12 14 12 13 14 13 12 11 10 10 11 12 12 11 14 15 17 27 36 42 43 45 55 52 45 44 38 34 35
8 9 9 9 9 9 9 9 8 8 8 8 8 8 8 9 10 12 14 16 19 20 21 23 24 25 27 27 29 32 32 28 26 24 23 23 22 20 18 17 17 18 20 16 13 13 12 14 15 13 13 12 12 12 13 13 12 13 13 13 14 13 12 12 12 11 10 10 10 11 11 12 12 14 14 15 22 28 31 30 30 43 45 39 39 34 31 34
10 9 9 9 9 9 10 9 9 9 8 9 9 9 9 9 9 10 12 14 17 19 20 22 23 24 26 28 31 33 32 30 26 21 22 24 23 20 18 17 18 21 21 17 14 14 14 15 15 13 13 12 12 13 14 14 14 14 13 12 13 14 13 12 11 11 11 10 10 11 10 12 13 13 14 14 20 23 24 23 23 34 37 34 35 32 31 35
11 10 10 10 10 10 10 10 10 9 9 9 10 10 10 9 9 10 10 12 15 18 20 21 23 24 26 30 33 32 32 30 26 23 23 24 24 22 19 18 18 21 20 18 16 15 15 16 15 14 13 13 13 13 14 14 15 16 14 12 12 13 13 13 12 11 11 11 10 10 10 12 14 13 13 15 19 22 23 23 26 36 36 33 35 33 32 35
12 12 11 11 11 11 10 10 10 11 10 10 11 11 11 11 10 10 10 11 13 15 18 19 22 22 25 31 32 30 30 29 28 27 24 24 24 22 22 19 17 18 18 19 17 16 16 16 16 15 14 14 14 13 14 14 15 15 13 12 12 12 13 13 12 11 11 11 11 11 11 13 14 13 13 16 20 21 24 26 29 37 35 31 37 36 34 38
12 12 12 12 11 11 11 11 10 11 11 11 11 13 13 13 12 11 11 11 11 14 16 17 19 20 25 30 29 27 28 27 27 28 27 26 25 24 23 20 18 17 18 21 19 15 15 16 16 16 15 14 14 13 14 13 14 13 12 12 11 11 12 12 12 11 11 11 12 11 11 13 13 12 13 19 25 23 24 27 30 38 35 30 37 38 37 40
11 11 12 12 11 11 11 11 10 10 11 11 12 13 14 15 14 13 12 12 12 12 13 15 16 18 25 29 27 26 25 25 26 27 29 28 26 24 23 21 20 20 20 22 21 17 15 14 14 15 17 16 14 15 14 13 13 12 11 11 11 12 11 11 12 11 11 11 12 12 12 13 13 11 12 20 28 26 26 27 29 40 40 32 35 38 37 38
10 10 11 11 11 11 11 10 10 10 11 12 13 13 15 16 16 15 15 14 14 13 13 14 14 19 29 29 24 25 26 26 27 26 27 28 26 24 22 22 22 20 20 21 21 18 14 12 12 16 18 17 17 18 15 13 12 11 11 10 11 12 12 11 11 11 11 12 12 13 13 13 13 12 12 19 25 25 28 29 29 39 44 36 34 36 35 37
12 12 11 10 10 9 10 10 10 10 10 11 12 13 15 16 18 18 17 16 16 16 16 16 17 22 29 27 24 26 26 27 28 26 26 26 25 24 23 23 22 20 19 19 19 15 14 12 12 16 18 16 17 18 15 14 13 10 11 12 11 11 12 13 13 12 12 13 12 12 14 13 14 15 16 19 21 22 27 31 33 39 45 40 35 34 33 35
14 14 13 12 12 10 10 9 9 10 10 11 11 13 13 14 17 17 17 17 18 19 19 21 24 27 30 30 29 27 25 27 26 25 26 25 26 27 26 24 22 20 17 17 15 14 13 13 14 16 17 15 15 14 15 16 15 13 11 11 12 10 11 15 16 13 12 14 13 13 14 12 15 17 19 23 23 23 25 29 35 40 44 41 35 34 33 34
13 13 14 14 13 13 12 10 9 9 10 11 10 12 13 14 15 16 17 17 18 21 22 26 29 30 31 29 28 27 28 29 25 24 26 25 27 29 26 24 23 19 16 16 13 14 14 14 17 16 16 17 14 13 16 17 16 15 13 11 13 12 11 15 19 15 13 14 13 14 13 12 19 24 25 28 26 25 25 26 35 41 43 39 33 34 33 33
12 13 13 12 13 14 13 12 11 9 10 10 11 13 13 14 14 15 17 19 21 24 27 32 31 31 35 31 27 31 32 30 26 26 27 25 27 27 24 22 21 17 16 17 14 16 17 16 17 16 17 16 14 16 16 17 18 16 14 12 13 15 14 14 19 19 14 13 13 14 14 12 18 25 28 31 26 26 26 25 34 41 42 35 30 33 33 32
12 12 11 12 12 12 13 13 13 11 10 9 11 12 13 16 19 19 23 27 28 26 30 39 34 30 36 35 31 32 32 30 26 27 28 25 25 24 22 21 20 17 17 17 16 16 18 17 17 17 20 18 16 17 17 21 25 24 22 16 13 19 19 13 19 22 15 14 14 14 15 14 14 19 25 31 27 24 25 27 34 41 40 32 28 33 34 34
12 12 11 11 11 11 12 12 13 13 12 10 10 11 17 25 29 33 37 33 28 22 22 30 28 26 32 33 32 31 31 29 24 27 30 26 24 23 22 21 18 17 17 18 17 17 18 18 19 18 21 22 19 17 18 23 26 27 28 23 15 20 22 14 18 24 18 15 17 14 14 15 14 15 21 30 31 24 25 29 36 42 39 31 29 31 34 36
12 13 12 11 11 11 11 11 13 13 13 12 11 14 20 23 26 33 34 27 22 22 19 20 22 24 29 32 35 34 31 29 25 30 31 25 25 23 21 19 17 15 16 19 20 19 19 20 22 21 20 23 22 18 20 23 23 21 22 20 17 18 22 18 20 24 20 18 19 17 15 16 17 16 20 30 32 27 25 30 37 42 38 33 33 31 34 37
12 12 12 12 11 11 11 11 11 12 13 13 12 15 18 18 20 24 26 22 21 24 22 20 20 22 24 30 35 33 32 30 27 31 31 25 24 22 20 17 15 15 17 22 27 24 19 19 23 25 23 25 25 22 22 23 22 21 19 17 17 18 20 24 25 22 21 20 18 18 18 17 19 19 24 33 33 29 26 28 35 41 39 36 35 32 34 37
10 10 10 11 11 11 11 11 11 11 12 12 12 16 18 18 19 20 23 25 22 23 25 25 23 24 25 28 31 30 29 30 28 30 29 25 23 20 19 16 14 18 21 24 30 29 22 19 21 24 26 27 26 23 20 19 19 19 19 17 17 20 21 25 28 22 20 20 17 19 21 20 20 21 27 35 33 30 28 28 34 40 40 38 35 32 33 35
12 11 11 10 9 10 11 11 12 11 12 12 12 16 18 18 19 20 23 26 24 22 24 26 24 25 27 29 30 26 26 29 29 30 27 23 23 20 18 17 16 21 24 24 27 28 26 23 22 25 28 25 21 20 17 17 18 16 18 18 17 23 25 25 29 27 24 21 18 22 25 22 23 23 26 31 32 33 32 32 37 42 41 40 36 32 33 35
17 16 16 14 13 13 11 12 17 17 16 15 13 15 18 19 20 21 23 27 30 28 26 25 22 23 26 26 26 24 25 27 29 32 28 23 23 20 18 19 20 23 27 26 25 24 25 27 26 26 28 21 16 19 17 16 19 17 17 17 18 26 30 27 28 30 28 25 19 20 22 23 27 26 27 32 33 35 37 36 40 43 42 39 34 31 33 36
19 19 19 19 19 17 16 20 25 21 18 18 15 16 19 19 21 23 27 32 35 35 34 30 27 27 26 22 21 23 27 26 27 33 30 24 24 22 20 20 21 23 27 27 26 24 24 27 28 25 24 19 15 20 21 17 18 20 17 15 18 27 31 29 28 27 28 30 28 21 18 25 33 32 30 34 35 36 39 39 42 46 46 40 32 32 36 39
19 19 19 19 19 19 19 23 24 18 17 19 18 18 19 19 21 25 32 36 33 34 37 35 34 33 30 24 20 23 29 27 26 31 30 27 26 23 22 23 22 24 26 27 26 23 23 27 28 22 19 19 18 20 23 18 16 22 22 16 17 23 27 26 25 24 25 32 36 28 19 27 39 37 32 33 33 34 39 41 41 44 49 45 36 36 41 43
19 19 19 19 19 19 20 20 21 19 19 20 19 20 19 18 23 27 37 41 32 30 36 36 35 33 32 30 22 23 31 29 26 28 29 29 27 22 22 24 24 24 25 26 27 24 22 23 23 19 17 21 21 20 22 19 16 24 28 21 17 18 21 22 22 22 24 31 37 33 23 28 41 40 37 37 33 33 40 42 38 40 47 49 43 41 43 46
18 17 17 18 18 19 19 18 21 22 22 21 19 20 17 19 27 32 43 47 34 29 34 34 33 31 32 32 25 25 30 30 29 30 30 29 27 22 21 25 25 24 23 22 24 27 24 22 21 19 19 22 23 22 22 19 17 24 29 25 22 19 19 20 19 21 27 32 35 36 29 26 36 43 44 42 36 36 43 41 39 43 51 54 48 45 46 48
14 14 15 14 15 19 21 19 21 23 24 23 19 17 17 23 31 36 44 42 29 29 33 33 36 36 34 32 28 26 28 32 36 36 33 29 26 23 22 25 26 25 24 21 22 26 26 26 23 19 20 23 25 24 24 20 19 25 28 25 24 22 20 20 20 24 34 35 32 35 35 29 34 44 45 41 39 44 46 41 40 46 53 55 50 48 49 50
11 11 11 11 11 15 18 19 24 26 25 22 17 17 23 28 32 39 44 33 23 29 32 31 36 38 37 36 31 27 30 36 36 33 33 29 25 25 23 25 25 25 27 24 22 24 27 28 24 19 22 26 27 27 24 20 19 25 29 26 24 23 21 21 22 27 34 35 31 33 37 33 34 41 42 39 40 46 46 42 44 47 49 51 50 51 51 51
7 7 8 8 8 9 11 15 23 24 24 24 21 21 28 34 36 38 38 30 24 28 31 33 35 36 38 39 36 31 33 38 35 30 32 30 26 25 24 26 27 26 28 26 24 24 27 27 23 20 22 24 26 25 21 18 20 25 27 25 28 30 30 29 29 29 30 32 34 36 39 37 36 40 46 45 43 47 48 43 42 43 43 46 51 55 57 57
6 5 5 6 6 6 7 9 15 15 18 24 25 25 32 41 41 34 30 30 29 29 32 36 37 37 40 41 41 37 35 38 36 31 33 32 30 28 24 26 28 26 27 27 25 26 27 26 24 24 24 22 22 24 25 22 19 23 24 24 32 38 37 35 33 31 30 32 35 38 41 40 38 41 47 50 47 47 48 44 41 40 41 45 49 54 61 63
5 5 6 6 5 7 8 9 11 9 11 20 25 29 35 41 40 33 29 28 28 29 32 36 37 38 39 40 41 41 39 40 39 35 36 35 35 35 29 27 28 27 28 28 27 27 28 27 25 25 25 23 19 22 31 30 22 21 22 26 37 40 38 36 34 34 34 36 39 41 39 38 40 43 42 42 43 42 41 42 43 42 44 48 49 53 62 65
6 6 6 7 9 11 12 14 14 9 8 16 22 29 34 35 34 32 29 26 26 28 30 32 35 36 35 37 42 42 41 43 42 38 38 37 37 38 35 31 30 28 28 31 31 30 31 31 29 25 25 25 22 22 29 32 29 24 21 28 37 38 37 37 36 38 38 38 42 44 38 35 41 45 40 36 41 43 40 40 44 44 43 46 48 54 61 60
9 11 11 14 18 18 15 16 15 11 10 14 19 24 28 30 30 30 28 27 27 28 29 30 32 33 33 36 41 43 42 43 46 42 40 40 37 39 38 35 34 31 30 33 34 33 33 35 35 30 27 27 26 25 25 28 35 36 29 31 37 38 38 39 40 41 37 35 39 40 37 37 39 43 43 43 48 51 47 45 46 43 41 40 41 48 54 54
12 18 18 19 20 19 18 16 15 13 11 14 19 20 21 27 30 29 28 28 29 30 31 30 29 31 32 36 41 44 42 42 44 43 42 42 41 41 39 38 38 35 32 33 36 38 38 39 39 34 31 31 29 28 26 24 32 41 39 36 38 38 36 36 40 42 36 33 33 35 38 39 39 42 44 48 54 54 53 53 50 46 44 41 38 41 47 50
12 18 19 20 20 17 16 14 15 15 13 15 20 19 18 23 28 30 31 32 31 30 29 27 27 29 31 35 41 44 43 43 44 43 42 43 46 45 42 43 43 39 36 34 37 41 41 42 42 36 34 35 31 29 29 26 27 36 41 41 40 40 37 34 34 35 36 34 31 32 36 35 39 44 44 49 54 50 52 57 53 48 46 43 41 42 45 51
15 22 26 28 25 17 13 13 17 17 14 16 19 18 17 18 23 29 32 35 33 27 25 25 25 29 31 34 39 44 47 47 46 46 43 44 49 50 46 48 48 44 42 39 38 42 44 45 46 41 37 38 34 30 30 29 27 27 32 38 40 42 41 38 35 32 34 37 35 35 37 39 44 46 43 50 57 53 54 59 53 48 46 44 44 44 45 50
20 27 37 38 26 15 14 17 19 19 18 18 16 16 17 17 21 28 32 38 38 29 25 26 27 30 33 33 34 43 53 53 50 49 48 48 54 53 47 49 50 47 46 44 42 45 47 49 50 47 42 39 37 33 30 30 31 30 29 32 37 41 40 39 40 38 35 38 38 36 41 51 53 48 47 54 59 58 58 58 51 47 46 45 45 44 46 49
23 35 49 44 27 18 19 23 25 24 22 19 14 14 20 22 24 29 34 39 39 32 26 27 32 34 33 32 31 37 47 52 52 54 53 55 61 57 49 49 50 49 49 48 46 47 49 50 52 52 47 42 40 37 33 33 35 38 36 32 33 39 40 38 39 40 38 39 40 38 46 60 58 51 53 56 54 56 56 51 47 46 46 47 47 47 48 49
28 39 45 35 23 20 23 30 35 35 32 27 20 17 21 28 28 30 35 38 36 33 29 30 35 37 36 36 33 32 38 44 50 55 55 59 65 63 55 50 49 50 51 51 50 51 51 50 52 52 48 44 42 40 37 34 34 38 40 38 36 37 38 37 36 39 39 38 40 39 45 61 62 52 55 55 50 54 56 49 45 45 46 46 46 47 48 47
32 36 36 31 27 24 26 33 37 38 39 39 35 28 26 29 30 31 36 38 38 35 31 30 34 36 37 38 36 34 35 39 45 51 54 58 63 63 60 55 51 51 51 52 53 53 52 52 52 51 49 45 44 42 39 36 35 36 37 39 41 40 40 39 38 41 42 40 42 39 41 57 61 52 54 56 53 56 56 50 46 45 44 44 45 50 52 51
32 37 40 40 34 30 36 41 43 47 49 48 49 47 41 32 28 32 37 36 37 37 33 30 30 30 31 35 37 36 35 38 41 45 50 59 64 65 63 59 55 54 53 53 55 53 54 56 54 53 55 53 48 45 41 39 38 37 36 37 39 41 42 43 43 46 46 45 45 43 46 59 60 54 57 59 58 61 59 53 49 48 47 47 49 54 57 57
33 38 41 41 35 38 47 48 48 56 58 57 60 59 53 42 30 31 40 41 36 37 39 36 29 26 29 32 35 34 35 37 40 45 49 54 62 64 60 56 54 53 53 54 55 55 57 61 59 58 62 63 59 55 49 45 42 38 38 39 39 39 40 43 44 46 47 47 44 45 55 65 61 59 64 63 62 65 61 54 52 52 53 53 56 59 61 62
35 35 33 36 38 45 55 52 47 54 57 57 60 57 54 55 45 33 36 44 42 40 45 48 41 33 29 29 32 33 33 33 36 44 48 50 56 57 52 52 52 51 51 51 52 54 57 62 63 63 66 68 66 61 55 50 46 42 40 41 41 41 43 44 44 44 46 47 45 46 56 66 68 67 68 67 67 67 63 57 56 57 59 60 62 65 65 64
32 33 27 34 46 57 68 64 50 50 54 54 57 57 56 63 63 48 36 40 47 45 42 46 45 35 26 26 30 31 32 33 34 37 43 49 55 53 50 53 52 49 49 48 48 50 56 62 65 66 67 67 64 62 59 54 49 47 46 45 45 44 44 46 47 47 47 47 52 57 59 65 71 70 68 69 70 68 64 62 62 63 63 64 66 67 65 63
26 32 28 39 60 70 75 72 55 47 52 52 54 56 56 60 67 64 48 36 43 48 44 41 37 27 23 26 28 29 32 35 37 38 42 51 56 52 50 53 51 49 49 49 49 50 54 61 62 62 65 65 63 63 62 58 54 53 53 52 52 50 48 49 50 49 49 51 59 66 67 70 73 72 71 71 72 71 69 66 66 67 66 66 66 66 63 61
25 35 39 50 68 71 70 70 64 58 56 54 52 51 52 56 61 63 55 42 41 46 45 43 35 24 22 25 27 34 39 38 41 47 48 52 54 52 50 51 51 50 50 52 54 52 56 64 63 60 63 65 64 63 63 62 60 59 57 56 56 55 53 54 55 53 55 59 64 66 69 75 75 70 69 69 71 75 74 69 67 68 68 68 67 67 64 60
23 34 48 59 66 69 69 70 72 72 66 60 59 53 48 49 50 50 51 51 51 49 46 48 44 30 25 28 32 43 48 44 46 52 50 50 51 53 55 54 50 51 54 57 58 55 57 65 64 60 62 64 64 65 67 67 65 63 61 59 58 58 55 54 56 58 62 65 68 66 68 75 73 66 65 68 73 76 74 70 69 69 70 71 69 68 65 61
21 28 47 61 64 69 77 81 83 83 75 69 70 64 54 49 47 43 43 48 56 56 50 53 53 40 33 35 36 39 41 38 38 40 41 43 45 47 51 50 47 50 55 57 58 58 61 66 66 63 63 63 64 66 70 73 72 70 67 63 62 61 57 52 53 60 65 66 68 66 66 71 72 67 68 73 76 77 74 72 71 70 71 72 71 70 68 64
23 30 45 56 59 66 77 85 88 86 81 77 76 69 59 52 49 46 47 48 52 54 50 49 51 46 39 36 33 32 33 33 32 30 32 37 39 39 41 42 43 49 54 56 57 58 63 68 69 67 66 66 66 69 73 78 82 80 75 70 67 63 58 55 54 59 63 64 65 65 65 69 71 71 71 72 73 72 70 68 69 69 70 71 71 70 68 67